[[{"header":{"parameterUnit":"m.s-1","parameterCategory":1,"la1":30.2991,"la2":30.254,"lo1":-89.0895,"lo2":-89.0444,"dy":0.0017,"dx":0.0017,"nx":28,"ny":28,"refTime":"2025-05-26T21:00:00:Z","depth":0,"parameterNumber":2,"parameterNumberName":"U-component_of_WINDS"},"data":[0,0,0,0,0,0,0,0,0,0,0,0,0,0,0,0,0,0,0,0,0,0,0,0,0,0,0,0,0,0,0,0,0,0,0,0,0,0,0,0,0,0,0,0,0,0,0,0,0,0,0,0,0,0,0,0,0,0,-1.2185,-1.2184,0,-1.209,-1.2089,-1.2088,-1.2036,-1.2036,-1.2036,-1.2036,-1.1935,-1.1932,-1.193,0,0,0,0,0,0,0,0,0,0,0,0,0,-1.2315,-1.2313,-1.2185,-1.2184,-1.2182,-1.2091,-1.2089,-1.2088,-1.2036,-1.2036,-1.2036,-1.2036,-1.1936,-1.1932,-1.1929,0,0,0,0,0,0,0,0,0,0,0,0,0,-1.2244,-1.2313,-1.2185,-1.2146,-1.2141,-1.2091,-1.2089,-1.2088,-1.2036,-1.2036,-1.2036,-1.2036,-1.1937,-1.1933,-1.1929,-1.1909,0,0,-1.1917,-1.1916,0,0,0,0,0,0,0,0,-1.2248,-1.2239,-1.2153,-1.2148,-1.2143,-1.2075,-1.2098,-1.2028,-1.2036,-1.2076,-1.2036,-1.2036,-1.1981,-1.1974,-1.1956,-1.1904,-1.19,-1.1917,-1.1915,-1.1913,-1.1912,0,0,0,0,0,0,0,-1.2253,-1.2243,-1.2147,-1.2151,-1.2146,-1.2131,-1.2121,-1.2085,-1.2031,-1.2072,-1.2068,-1.2058,-1.1979,-1.196,-1.1954,-1.1899,-1.1917,-1.1914,-1.1911,-1.191,-1.1825,-1.1825,0,0,0,0,0,0,-1.2265,-1.2247,-1.215,-1.2144,-1.2196,-1.2129,-1.2117,-1.2097,-1.2031,-1.2021,-1.2059,-1.2056,-1.1967,-1.1958,-1.195,-1.1922,-1.1913,-1.1909,-1.1907,-1.1825,-1.1825,-1.1825,0,0,0,0,0,0,-1.2268,-1.2257,-1.2154,-1.2195,-1.2181,-1.2127,-1.2104,-1.2095,-1.2077,-1.2021,-1.201,-1.205,-1.1966,-1.1955,-1.192,-1.1917,-1.1908,-1.1904,-1.1825,-1.1825,-1.1825,-1.1866,0,0,0,0,0,0,-1.2272,-1.2258,-1.2251,-1.2195,-1.2179,-1.2127,-1.2104,-1.2094,-1.2071,-1.2067,-1.201,-1.2,-1.1965,-1.1926,-1.1916,-1.1912,-1.1901,-1.1825,-1.1825,-1.1825,-1.1864,-1.1867,-1.187,0,0,0,0,0,-1.2277,-1.2265,-1.2251,-1.2239,-1.2169,-1.2127,-1.2118,-1.2079,-1.2071,-1.2063,-1.2026,-1.2002,-1.192,-1.1923,-1.1911,-1.1906,-1.1825,-1.1825,-1.1825,-1.1863,-1.1867,-1.187,0,0,0,0,0,0,-1.2321,-1.2257,-1.224,-1.2211,-1.2175,-1.2119,-1.2107,-1.2084,-1.2049,-1.2046,-1.1999,-1.1986,-1.1955,-1.1927,-1.1932,-1.1883,-1.1869,-1.1867,-1.1902,-1.1905,-1.1908,-1.1915,-1.1898,0,0,0,0,0,-1.2328,-1.23,-1.2246,-1.2225,-1.2208,-1.2161,-1.2141,-1.2115,-1.2075,-1.2059,-1.202,-1.1981,-1.1946,-1.1924,-1.1889,-1.1861,-1.1847,-1.1851,-1.1854,-1.1856,-1.1855,-1.1836,-1.1837,-1.1825,-1.1825,-1.1825,0,0,-1.234,-1.2302,-1.2288,-1.2233,-1.2202,-1.2173,-1.2148,-1.2119,-1.2097,-1.2054,-1.2019,-1.1989,-1.1942,-1.191,-1.1894,-1.1885,-1.1855,-1.1856,-1.1859,-1.1856,-1.1837,-1.1838,-1.1839,-1.1826,-1.1826,-1.1826,0,0,-1.2349,-1.2318,-1.2297,-1.2267,-1.2221,-1.219,-1.2185,-1.2132,-1.2111,-1.2075,-1.2042,-1.2014,-1.1956,-1.1924,-1.19,-1.1897,-1.1872,-1.1887,-1.19,-1.1883,-1.1884,-1.1884,-1.1882,-1.1882,-1.1885,-1.1885,-1.1885,0,-1.237,-1.2327,-1.2289,-1.2262,-1.2238,-1.22,-1.2177,-1.2149,-1.2094,-1.2078,-1.207,-1.1996,-1.1961,-1.1921,-1.192,-1.1902,-1.1894,-1.1892,-1.1887,-1.1887,-1.1887,-1.1885,-1.1884,-1.1887,-1.1887,-1.1887,-1.1887,0,-1.2355,-1.2326,-1.2315,-1.2263,-1.2238,-1.2214,-1.217,-1.215,-1.2126,-1.2095,-1.2058,-1.2016,-1.1972,-1.196,-1.1936,-1.1916,-1.1912,-1.1897,-1.1882,-1.1891,-1.1888,-1.1887,-1.189,-1.189,-1.1889,-1.1888,0,0,-1.2388,-1.2317,-1.2313,-1.2289,-1.2236,-1.2212,-1.2185,-1.2143,-1.2126,-1.2089,-1.2064,-1.2016,-1.2001,-1.1974,-1.1946,-1.1931,-1.193,-1.1916,-1.1915,-1.192,-1.1905,-1.1916,-1.1916,-1.1914,-1.1914,-1.1914,-1.1908,0,-1.2389,-1.2341,-1.2305,-1.227,-1.2242,-1.2205,-1.2181,-1.2145,-1.2116,-1.2087,-1.2054,-1.202,-1.2003,-1.1987,-1.197,-1.1934,-1.1926,-1.1934,-1.1889,-1.1888,-1.1902,-1.1914,-1.1926,-1.1923,-1.1907,-1.1907,-1.1906,0,-1.2382,-1.2348,-1.2311,-1.226,-1.2247,-1.2227,-1.2185,-1.2158,-1.2116,-1.2096,-1.2066,-1.2037,-1.2006,-1.1996,-1.1951,-1.1957,-1.1937,-1.1916,-1.1915,-1.1908,-1.1897,-1.1907,-1.1921,-1.192,-1.1904,-1.1904,-1.1905,0,-1.2409,-1.2354,-1.2324,-1.2305,-1.2245,-1.2232,-1.2206,-1.2164,-1.2141,-1.2104,-1.2089,-1.2049,-1.2026,-1.1995,-1.1956,-1.1952,-1.1915,-1.1901,-1.1896,-1.1897,-1.1889,-1.189,-1.1899,-1.1878,-1.1878,-1.1878,-1.1878,0,-1.2413,-1.2391,-1.2335,-1.2317,-1.2291,-1.225,-1.2225,-1.2196,-1.2159,-1.2133,-1.2099,-1.2075,-1.2025,-1.1995,-1.1964,-1.1931,-1.1921,-1.1903,-1.1895,-1.1905,-1.1908,-1.189,-1.1889,-1.1878,-1.1878,-1.1878,-1.1878,0,-1.2438,-1.24,-1.2365,-1.2312,-1.2298,-1.2281,-1.2235,-1.2215,-1.2184,-1.2152,-1.2142,-1.2093,-1.2056,-1.2014,-1.1962,-1.1941,-1.191,-1.1899,-1.1925,-1.192,-1.1917,-1.1917,-1.1914,-1.1912,-1.1894,-1.1894,-1.1894,0,-1.2442,-1.2425,-1.237,-1.2351,-1.2327,-1.2297,-1.2273,-1.2232,-1.2209,-1.216,-1.2146,-1.2106,-1.2072,-1.2014,-1.1973,-1.1933,-1.192,-1.1922,-1.1913,-1.1925,-1.1919,-1.192,-1.1917,-1.1924,-1.1924,-1.1924,-1.1925,0,-1.2454,-1.2436,-1.2404,-1.2366,-1.234,-1.2308,-1.2274,-1.226,-1.2211,-1.2187,-1.2149,-1.2123,-1.2071,-1.2032,-1.1987,-1.1959,-1.1933,-1.1928,-1.1924,-1.1934,-1.195,-1.1941,-1.193,-1.1928,-1.1927,-1.1927,-1.1927,-1.1927,-1.2468,-1.245,-1.2409,-1.2375,-1.2346,-1.2315,-1.2293,-1.2261,-1.2229,-1.2184,-1.2161,-1.2124,-1.2081,-1.2019,-1.1992,-1.196,-1.1952,-1.1947,-1.1946,-1.1945,-1.1948,-1.1956,-1.1952,-1.1952,-1.1952,-1.1952,-1.1952,0,-1.2477,-1.2449,-1.2418,-1.2372,-1.2345,-1.2325,-1.2287,-1.2265,-1.2233,-1.2196,-1.2164,-1.212,-1.2082,-1.2038,-1.1997,-1.198,-1.1967,-1.1971,-1.1971,-1.1964,-1.1958,-1.1965,-1.1982,-1.1982,-1.1982,-1.1982,-1.1982,-1.1982,-1.2478,-1.2447,-1.2424,-1.2378,-1.235,-1.2314,-1.2293,-1.2264,-1.2235,-1.2188,-1.2157,-1.2129,-1.2089,-1.2045,-1.2008,-1.1996,-1.1982,-1.1989,-1.1973,-1.1967,-1.1965,-1.1963,-1.1969,-1.1986,-1.1986,-1.1982,-1.1982,-1.1982]},{"header":{"parameterUnit":"m.s-1","parameterCategory":1,"la1":30.2991,"la2":30.254,"lo1":-89.0895,"lo2":-89.0444,"dy":0.0017,"dx":0.0017,"nx":28,"ny":28,"refTime":"2025-05-26T21:00:00:Z","depth":0,"parameterNumber":3,"parameterNumberName":"V-component_of_WINDS"},"data":[0,0,0,0,0,0,0,0,0,0,0,0,0,0,0,0,0,0,0,0,0,0,0,0,0,0,0,0,0,0,0,0,0,0,0,0,0,0,0,0,0,0,0,0,0,0,0,0,0,0,0,0,0,0,0,0,0,0,4.1615,4.1615,0,4.1606,4.1606,4.1606,4.1519,4.1517,4.1514,4.1512,4.1503,4.1505,4.1507,0,0,0,0,0,0,0,0,0,0,0,0,0,4.1554,4.1555,4.1615,4.1615,4.1614,4.1606,4.1606,4.1606,4.1519,4.1516,4.1514,4.1511,4.1503,4.1505,4.1507,0,0,0,0,0,0,0,0,0,0,0,0,0,4.1567,4.1556,4.1615,4.157,4.1566,4.1606,4.1606,4.1606,4.152,4.1516,4.1513,4.151,4.1502,4.1505,4.1507,4.159,0,0,4.1516,4.1517,0,0,0,0,0,0,0,0,4.1566,4.1569,4.1577,4.1573,4.1569,4.156,4.1581,4.1601,4.152,4.1537,4.1512,4.1508,4.1525,4.1526,4.1531,4.159,4.1589,4.1516,4.1518,4.1519,4.152,0,0,0,0,0,0,0,4.1565,4.1569,4.1611,4.1577,4.1572,4.155,4.1548,4.1585,4.155,4.1536,4.1529,4.1529,4.1522,4.1529,4.153,4.1589,4.1516,4.1518,4.152,4.1521,4.1714,4.1717,0,0,0,0,0,0,4.1571,4.1569,4.1612,4.1611,4.1559,4.1554,4.1552,4.1566,4.1549,4.1543,4.1532,4.1525,4.1526,4.1527,4.153,4.1625,4.1519,4.1521,4.1523,4.171,4.1715,4.1718,0,0,0,0,0,0,4.157,4.1575,4.1612,4.1588,4.1591,4.1558,4.1575,4.1568,4.1574,4.1546,4.154,4.1546,4.1523,4.1526,4.1575,4.1623,4.1523,4.1525,4.1706,4.1712,4.1717,4.1816,0,0,0,0,0,0,4.1568,4.1575,4.1607,4.1589,4.1593,4.1658,4.1578,4.157,4.1579,4.157,4.1557,4.1552,4.1521,4.1572,4.1578,4.1625,4.1527,4.1702,4.1709,4.1715,4.1808,4.1824,4.1837,0,0,0,0,0,4.1566,4.1635,4.1609,4.1614,4.1631,4.1661,4.1663,4.1626,4.1584,4.1614,4.1596,4.1552,4.1617,4.1578,4.1584,4.1633,4.1699,4.1707,4.1714,4.1802,4.1821,4.1837,0,0,0,0,0,0,4.1659,4.1632,4.1603,4.1668,4.1668,4.1646,4.1684,4.1648,4.1659,4.165,4.1604,4.1602,4.1658,4.165,4.1607,4.1711,4.165,4.166,4.1714,4.1732,4.1746,4.1747,4.1529,0,0,0,0,0,4.1687,4.1714,4.1689,4.1749,4.175,4.1718,4.1729,4.1701,4.1699,4.1698,4.1683,4.1683,4.1703,4.1717,4.1734,4.1807,4.1802,4.1843,4.1857,4.1869,4.1878,4.1915,4.1933,4.1744,4.1744,4.1744,0,0,4.1745,4.1733,4.1753,4.1767,4.1763,4.1792,4.1718,4.1751,4.1772,4.1703,4.1749,4.1738,4.1734,4.1796,4.1822,4.1791,4.1929,4.188,4.1889,4.1891,4.1925,4.1943,4.1959,4.175,4.1749,4.1748,0,0,4.1865,4.1859,4.1908,4.1906,4.1902,4.188,4.1892,4.1876,4.1867,4.1912,4.186,4.1884,4.192,4.1919,4.1923,4.2043,4.2003,4.205,4.2126,4.2163,4.2178,4.2191,4.2233,4.2249,4.2059,4.2059,4.2059,0,4.1937,4.1979,4.1938,4.1975,4.1982,4.1921,4.197,4.197,4.1971,4.1978,4.1943,4.1986,4.1979,4.2039,4.2068,4.2074,4.2086,4.2051,4.2179,4.2191,4.2203,4.2243,4.2259,4.2065,4.2064,4.2064,4.2063,0,4.2068,4.2097,4.2137,4.214,4.2152,4.2195,4.216,4.2177,4.2148,4.2129,4.2176,4.2166,4.2179,4.2191,4.2163,4.2248,4.2228,4.2187,4.2125,4.2227,4.2264,4.2279,4.2073,4.2071,4.2069,4.2068,0,0,4.2246,4.2226,4.2241,4.2241,4.2232,4.2254,4.2293,4.2307,4.2322,4.2325,4.2357,4.2388,4.235,4.2355,4.2326,4.2358,4.2454,4.2313,4.2312,4.2339,4.2546,4.2577,4.2595,4.2427,4.243,4.2432,4.2546,0,4.2361,4.2428,4.2393,4.2464,4.2491,4.2433,4.2467,4.2465,4.2449,4.2469,4.2451,4.2474,4.2421,4.2424,4.2454,4.2436,4.2494,4.2427,4.2456,4.2458,4.2459,4.2614,4.2647,4.2755,4.256,4.2562,4.2564,0,4.2505,4.2514,4.2588,4.2573,4.2583,4.2615,4.2624,4.2644,4.264,4.2626,4.2632,4.2595,4.2632,4.2571,4.2622,4.2578,4.2587,4.258,4.2584,4.2585,4.2517,4.2619,4.2789,4.2805,4.2586,4.2585,4.2583,0,4.2627,4.2657,4.2706,4.2708,4.2692,4.2715,4.271,4.2703,4.2713,4.2721,4.2727,4.274,4.2746,4.2757,4.2724,4.2683,4.278,4.2716,4.2769,4.277,4.2792,4.2791,4.2966,4.2799,4.2799,4.2798,4.2798,0,4.2759,4.2807,4.276,4.279,4.2841,4.28,4.2852,4.284,4.2835,4.2861,4.2812,4.2837,4.2793,4.2814,4.2789,4.2835,4.2838,4.2828,4.2821,4.2832,4.2834,4.2838,4.2829,4.2803,4.2802,4.2801,4.28,0,4.2904,4.2875,4.2923,4.2904,4.29,4.2939,4.2923,4.2949,4.293,4.2963,4.2969,4.2938,4.2961,4.2929,4.2948,4.2931,4.2995,4.2976,4.2996,4.2991,4.3046,4.3041,4.3229,4.3251,4.3071,4.3073,4.3074,0,4.299,4.3025,4.301,4.3024,4.3021,4.3045,4.3055,4.3015,4.3028,4.3026,4.3053,4.3071,4.3083,4.3122,4.3101,4.3116,4.3097,4.3162,4.3099,4.3109,4.3098,4.3096,4.3099,4.3175,4.3177,4.3179,4.318,0,4.3146,4.313,4.3146,4.3158,4.3171,4.3179,4.3182,4.3197,4.3155,4.3172,4.3194,4.3204,4.3223,4.3242,4.3251,4.3244,4.3206,4.32,4.3213,4.3225,4.3236,4.3231,4.3031,4.3196,4.3194,4.3193,4.3192,4.3192,4.3264,4.3292,4.3286,4.3306,4.3304,4.3309,4.3333,4.3316,4.3334,4.3347,4.3322,4.3351,4.3346,4.3354,4.3352,4.3374,4.3346,4.3365,4.3369,4.3375,4.3383,4.3232,4.3375,4.3375,4.3374,4.3374,4.3374,0,4.3417,4.341,4.3429,4.3435,4.3451,4.3413,4.3415,4.3431,4.3456,4.3455,4.3468,4.3494,4.3512,4.3493,4.3507,4.3528,4.351,4.3533,4.3531,4.353,4.3408,4.3395,4.3547,4.3547,4.3547,4.3547,4.3547,4.3547,4.3499,4.3545,4.3528,4.3573,4.3565,4.3593,4.3597,4.3601,4.36,4.363,4.3645,4.3632,4.3624,4.3637,4.3652,4.3646,4.3653,4.3682,4.367,4.3556,4.3539,4.3523,4.351,4.3684,4.3685,4.3791,4.3792,4.3793]}]]